Location: ???????
(55.5363°N, 38.1147°E)
Time: 20:19:02
(UTC+00:00)

Daily predictions for brighter satellites

Satellite Brightness Start Highest point End
(mag) Time Altitude Azimuth Time Altitude Azimuth Time Altitude Azimuth
SMAP 3.9 14:59:54 10° S 15:04:30 57° WSW 15:09:07 10° NNW
Cosmos 2061 Rocket 4.1 14:58:11 10° N 15:04:35 67° ENE 15:10:52 10° SSE
Spot 4 Rocket 4.3 15:01:07 10° SE 15:05:56 44° ENE 15:10:47 10° N
ARIANE 5 R/B 2.8 15:05:23 10° SSE 15:10:30 77° WSW 15:15:34 10° NNW
SJ-6F 4.3 15:06:45 10° SSE 15:10:41 80° ENE 15:14:37 10° NNW
SAR-Lupe-1 4.1 15:07:15 10° SSE 15:10:45 60° ENE 15:14:18 10° N
UNK 3.7 15:06:20 10° NNE 15:10:55 77° ESE 15:15:30 10° SSW
Okean 1 Rocket 3.0 15:07:37 10° N 15:12:02 64° ENE 15:16:21 10° SSE
NOSS 3-4 (A) 3.8 15:05:49 10° NW 15:12:13 84° NE 15:19:51 10° SE
CZ-4C R/B 2.2 15:08:00 10° SSW 15:12:14 48° SE 15:17:39 10° NE
NOSS 3-4 (C) 3.8 15:06:05 10° NW 15:12:31 84° NE 15:20:09 10° SE
SL-16 R/B 3.0 15:06:51 10° NNE 15:13:01 69° WNW 15:19:12 10° SSW
USA 290 2.1 15:11:54 10° SSW 15:15:05 84° ESE 15:18:18 10° NNE
Aureole 3 Rocket 2.8 15:14:58 10° N 15:19:03 49° ENE 15:22:16 10° SSE
Okean 2 Rocket 3.0 15:15:25 10° N 15:19:51 84° ENE 15:24:13 10° SSE
SL-16 R/B 2.7 15:14:46 10° NNW 15:20:06 40° NE 15:25:25 10° ESE
Cosmos 1378 Rocket 3.5 15:17:14 10° S 15:21:33 86° E 15:25:52 10° NNE
BREEZE-M DEB (TANK) 4.4 15:19:32 10° WSW 15:22:28 37° S 15:29:35 10° ESE
SJ-12 4.4 15:18:53 10° S 15:22:39 61° WSW 15:26:25 10° NNW
Cosmos 2227 Rocket 3.6 15:19:29 10° SE 15:23:08 18° E 15:26:48 10° ENE
Cosmos 1315 Rocket 3.7 15:19:58 10° NNW 15:23:40 50° W 15:27:21 10° S
Cosmos 2221 Rocket 3.8 15:22:34 10° SSE 15:26:52 48° E 15:31:13 10° NNE
SAR-Lupe-4 3.5 15:23:21 10° SSE 15:26:56 89° NE 15:30:32 10° NNW
Cosmos 1025 Rocket 3.0 15:24:52 10° S 15:29:07 61° E 15:33:25 10° NNE
ATLAS 2AS CENTAUR R/B 3.3 15:23:25 10° W 15:30:07 50° NNW 15:36:43 10° ENE
Cosmos 2150 Rocket 4.1 15:25:48 10° NNW 15:30:55 57° NE 15:35:58 10° SE
BREEZE-M DEB (TANK) 4.4 15:27:33 10° WSW 15:31:30 49° S 15:45:54 10° ESE
Cosmos 1346 Rocket 4.5 15:30:04 10° ESE 15:31:09 12° E 15:31:09 12° E
Cosmos 2298 Rocket 4.1 15:29:35 10° NNW 15:34:50 58° NE 15:40:04 10° SE
Cosmos 2123 Rocket 4.4 15:29:06 10° SSW 15:35:25 71° WNW 15:41:43 10° N
Sich 1 Rocket 3.7 15:31:51 10° NNW 15:36:25 84° W 15:40:58 10° S
SKYMED 2 3.6 15:35:36 10° NNE 15:39:56 62° ESE 15:44:14 10° S
GP-B 3.8 15:36:54 10° SSW 15:41:13 59° W 15:45:33 10° N
Resurs 1-3 3.7 15:40:17 10° SSE 15:44:35 81° WSW 15:48:56 10° NNW
BREEZE-M (TANK) 4.3 15:46:40 10° WSW 15:48:49 22° S 15:52:48 10° SE
USA 267 3.4 15:43:08 12° ENE 15:49:10 67° SSE 15:55:41 10° SW
CZ-4B R/B 4.4 15:48:18 15° E 15:50:53 22° NE 15:54:50 10° N
ATLAS CENTAUR R/B 2.2 15:49:26 10° NNW 15:51:36 19° NNE 15:52:30 17° NE
Resurs 01 Rocket 1.6 15:47:23 10° SSE 15:51:43 60° ENE 15:56:05 10° N
Lacrosse 5 rocket 0.9 15:48:32 10° W 15:52:03 80° NNW 15:54:24 20° ENE
Radarsat Rocket 4.1 15:47:23 10° SSE 15:53:20 87° WSW 15:59:56 10° NNW
CZ-4 R/B 2.5 15:52:51 19° ENE 15:53:33 20° ENE 15:56:21 10° N
Cosmos 1782 2.9 15:53:18 10° N 15:56:44 39° ENE 16:00:07 10° SE
Cosmos 1674 Rocket 4.1 15:54:34 10° SSW 15:58:56 62° WNW 16:03:21 10° N
CSL-04 Rocket 4.1 15:54:45 10° SE 15:59:33 37° ENE 16:04:23 10° N
Cosmos 2344 4.4 15:54:58 10° SSE 16:00:56 25° ESE 16:04:25 17° ENE
Cosmos 2082 Rocket 4.2 15:57:43 10° WNW 16:01:39 19° NNW 16:05:35 10° NNE
ERS-1 Rocket 4.2 16:00:19 19° E 16:01:52 22° NE 16:05:40 10° N
SL-19 R/B 4.4 15:56:08 10° SSE 16:02:15 89° ENE 16:08:05 10° NNW
CARTOSAT-1 3.5 15:58:48 10° SSE 16:03:01 88° W 16:07:15 10° NNW
Cosmos 1447 Rocket 4.4 15:59:16 10° S 16:05:23 84° E 16:11:35 10° NNE
Cosmos 2297 Rocket 2.2 16:01:18 10° SSW 16:06:54 66° ESE 16:12:32 10° NE
ARIANE 6 FM1 Upper Stage 2.4 16:02:57 10° NW 16:06:56 81° NE 16:09:27 22° ESE
Cosmos 1943 3.8 16:01:39 10° NNW 16:06:58 37° NE 16:10:06 21° E
RESURS DK-1 3.3 16:09:46 10° NNW 16:13:17 28° NE 16:14:11 26° ENE
SPOT 5 3.3 16:13:19 13° SE 16:17:24 45° ENE 16:22:18 10° N
IRAS Rocket 4.2 16:12:14 10° SSE 16:17:51 83° ENE 16:23:31 10° NNW
SeaSat 1 4.5 16:14:31 10° S 16:18:46 29° WSW 16:23:03 10° NW
Cosmos 1867 4.2 16:14:15 10° WSW 16:19:34 53° NNW 16:24:09 14° NE
NOSS 3-3 (C) 3.8 16:14:40 10° SW 16:20:08 86° SE 16:25:36 16° NE
Okean-O 4.5 16:22:28 15° NE 16:22:28 15° NE 16:24:15 10° NNE
Okean O Rocket 3.4 16:24:36 16° NE 16:24:36 16° NE 16:26:38 10° NNE
SJ-6B 2.3 16:21:46 10° SSE 16:25:12 88° ENE 16:28:41 10° NNW
Iridium 4 Rocket 4.5 16:21:40 10° NNE 16:24:56 23° NE 16:24:56 23° NE
Cosmos 2228 2.9 16:22:17 10° NNW 16:26:30 83° WSW 16:30:42 10° S
COSMO-SKYMED 1 2.5 16:22:36 10° NNE 16:26:45 81° WNW 16:30:52 10° SSW
PSLV R/B 4.4 16:24:17 10° S 16:28:16 50° W 16:32:16 10° NNW
Cosmos 1544 Rocket 3.5 16:24:15 10° N 16:28:33 58° ENE 16:31:54 16° SSE
Cosmos 1570 Rocket 3.9 16:23:47 10° SSW 16:29:02 80° ESE 16:34:20 10° NNE
Cosmos 2034 Rocket 3.9 16:23:17 10° N 16:29:27 67° ENE 16:35:37 10° SSE
Cosmos 1607 4.2 16:25:43 10° WSW 16:31:50 65° NW 16:36:58 16° NE
Meteor 1-31 Rocket 2.5 16:32:28 49° ESE 16:33:00 55° ENE 16:36:24 10° N
Cosmos 1455 Rocket 4.2 16:29:18 10° NNW 16:33:25 44° W 16:37:29 10° SSW
Cosmos 2263 Rocket 2.8 16:28:47 10° S 16:33:49 33° ESE 16:34:55 31° E
ADEOS 4.1 16:32:23 31° E 16:33:55 38° ENE 16:38:43 10° N
DMSP B5D1-3 4.4 16:28:52 10° NNE 16:34:00 72° ESE 16:39:06 10° S
Cosmos 1634 Rocket 4.2 16:29:45 10° N 16:35:52 47° ENE 16:39:43 22° SE
Cosmos 2237 Rocket 4.0 16:32:33 10° NW 16:37:33 33° WSW 16:42:33 10° S
Cosmos 1975 Rocket 2.9 16:35:07 10° S 16:39:26 78° E 16:43:47 10° NNE
CZ-4B R/B 3.6 16:37:56 28° SSE 16:39:54 70° ENE 16:43:44 10° NNW
Feng Yun 1-1 Rocket 4.4 16:41:06 24° SE 16:44:33 57° ENE 16:50:21 10° NNW
Cosmos 773 Rocket 3.9 16:40:32 10° SSW 16:45:49 85° ESE 16:51:09 10° NNE
Cosmos 972 Rocket 3.9 16:41:01 10° NNW 16:45:56 60° ENE 16:47:52 36° SE
NOSS 3-3 (A) 4.1 16:41:09 10° WSW 16:46:40 71° NNW 16:51:18 21° NE
PAYLOAD B 4.3 16:44:10 29° SE 16:46:54 55° ENE 16:52:23 10° N
Cosmos 1833 Rocket 4.2 16:46:16 10° NNW 16:50:28 21° NNE 16:51:50 19° NE
Cosmos 2208 Rocket 3.9 16:46:05 10° SSW 16:51:21 87° ESE 16:56:45 10° NNE
Terra 2.3 16:52:47 38° NE 16:52:47 38° NE 16:56:52 10° N
Meteor 2-17 Rocket 4.5 16:47:54 10° SSW 16:53:59 80° WNW 17:00:05 10° N
Cosmos 1464 Rocket 4.5 16:50:10 10° NNW 16:56:28 64° W 17:02:40 10° S
Cosmos 2279 Rocket 4.2 16:51:03 10° N 16:57:01 47° ENE 16:58:26 40° ESE
CZ-4C R/B 2.6 16:55:41 10° WSW 17:00:24 55° NNW 17:03:44 25° NE
Cosmos 44 Rocket 3.2 16:57:27 10° SW 17:02:26 81° SE 17:03:58 46° NE
Cosmos 2084 Rocket 4.3 17:00:18 10° NW 17:04:11 36° NNE 17:04:18 36° NNE
SL-16 R/B 2.7 16:58:55 10° NW 17:04:29 59° WSW 17:08:54 16° S
Cosmos 1346 Rocket 2.8 17:02:35 10° SSW 17:05:39 61° SW 17:05:39 61° SW
Cosmos 2227 Rocket 2.0 17:00:40 10° SSW 17:06:18 78° ESE 17:09:38 26° NE
MetOp-B 4.0 17:15:55 60° ESE 17:16:42 68° ENE 17:22:02 10° NNW
Cosmos 1420 Rocket 4.1 17:16:52 10° NNW 17:21:43 56° NE 17:21:43 56° NE
ATLAS 2AS CENTAUR R/B 3.3 17:15:44 10° WNW 17:22:15 44° N 17:24:21 35° NE
ATLAS CENTAUR R/B 3.2 17:22:54 10° NW 17:23:42 17° NW 17:23:42 17° NW
CZ-4 R/B 2.0 17:27:51 50° WNW 17:27:51 50° WNW 17:31:01 10° NNW
Resurs 01 Rocket 4.1 17:25:02 10° SW 17:28:28 22° W 17:31:56 10° NW
Lacrosse 5 rocket 2.3 17:25:28 10° WNW 17:27:50 39° WNW 17:27:50 39° WNW
IRS-1A Rocket 4.2 17:29:14 65° E 17:29:26 65° ENE 17:35:04 10° NNW
CZ-4B R/B 3.0 17:30:09 69° SSE 17:30:50 87° ENE 17:36:11 10° NNW
MOS 1-B 4.3 17:31:40 61° ENE 17:31:40 61° ENE 17:37:20 10° NNW
USA 267 3.2 17:30:29 50° ENE 17:32:24 82° N 17:38:58 10° W
CZ-4B DEB 4.5 17:33:03 31° S 17:35:38 66° WSW 17:41:05 10° NNW
CSL-04 Rocket 4.4 17:35:40 15° S 17:39:48 48° W 17:44:57 10° NNW
ERS-1 Rocket 2.9 17:40:10 83° WNW 17:40:10 83° WNW 17:45:05 10° NNW
Cosmos 44 4.1 17:36:13 10° NW 17:40:56 47° NNE 17:40:56 47° NNE
Cosmos 2082 Rocket 4.0 17:43:58 10° NNW 17:47:56 19° NNE 17:48:32 19° NNE
RESURS DK-1 3.8 17:47:01 10° NW 17:49:28 34° WNW 17:49:28 34° WNW
Cosmos 2297 Rocket 3.5 17:46:05 10° WSW 17:51:19 37° NW 17:55:14 17° NNE
Cosmos 1943 3.4 17:45:43 10° NW 17:51:22 65° WSW 17:51:54 62° SSW
Tsikada Rocket 4.0 17:46:22 10° SSW 17:52:32 77° WNW 17:58:47 10° N
SPOT 5 4.3 17:52:21 18° SSW 17:55:26 37° W 18:00:13 10° NNW
Okean-O 4.4 17:59:48 25° N 17:59:48 25° N 18:01:40 10° NNW
Okean O Rocket 3.4 18:01:49 26° NNW 18:01:49 26° NNW 18:03:48 10° NNW
Spot 2 Rocket 4.4 18:06:26 42° NNW 18:06:26 42° NNW 18:09:48 10° NNW
Iridium 4 Rocket 4.3 18:01:03 10° N 18:04:30 41° NW 18:04:30 41° NW
Cosmos 1603 4.0 18:01:31 10° NW 18:06:12 63° NW 18:06:12 63° NW
Cosmos 2180 Rocket 4.5 18:02:18 10° NNW 18:08:10 78° NNW 18:08:10 78° NNW
Cosmos 2056 Rocket 4.4 18:07:55 10° NNW 18:11:25 43° NNW 18:11:25 43° NNW
ADEOS 4.4 18:13:06 46° WSW 18:13:21 46° W 18:18:23 10° NNW
Cosmos 2344 3.2 18:06:44 10° SW 18:14:12 86° SE 18:14:28 83° E
Cosmos 2263 Rocket 2.7 18:11:48 10° SW 18:16:42 57° W 18:16:42 57° W
Terra 3.5 18:31:23 31° WNW 18:31:23 31° WNW 18:34:28 10° NNW
USA 281 4.3 18:34:00 33° NNE 18:34:00 33° NNE 18:38:44 10° NNW
Cosmos 909 Rocket 4.5 18:28:43 10° NW 18:33:54 59° NNW 18:33:54 59° NNW
Cosmos 1833 Rocket 4.1 18:30:16 10° NNW 18:33:30 32° N 18:33:30 32° N
CZ-4C R/B 3.5 18:44:33 10° WNW 18:48:41 38° NNW 18:48:41 38° NNW
Cosmos 2227 Rocket 3.7 18:45:50 10° W 18:50:55 33° NW 18:51:30 32° NNW
ATLAS 2AS CENTAUR R/B 3.5 19:07:12 10° NW 19:11:46 45° NW 19:11:46 45° NW
USA 267 4.1 19:17:49 43° WNW 19:17:49 43° WNW 19:22:00 10° WNW
Cosmos 2082 Rocket 4.4 19:28:20 10° NNW 19:30:22 21° NNW 19:30:22 21° NNW
Cosmos 2297 Rocket 4.5 19:33:06 10° WNW 19:37:01 19° NNW 19:37:03 19° NNW
CENTAUR R/B 4.3 23:07:19 31° NE 23:07:19 31° NE 23:11:21 10° NE
ACS3 Solar Sail 3.8 23:21:12 10° NNE 23:23:03 21° NNE 23:23:03 21° NNE
SL-16 R/B 4.2 23:43:01 27° NNE 23:43:01 27° NNE 23:46:19 10° N
Cosmos 2369 Rocket 4.3 23:52:33 23° NNE 23:52:33 23° NNE 23:54:37 10° NNE
